STARLINK-11309 [DTC]

Last updated on Fri Oct 04 2024 00:02:04 GMT+0000 (Coordinated Universal Time)

1 61202U 24171C 24277.58334491 -.00926228 00000+0 -59233-2 0 9999 2 61202 53.1628 231.6775 0000453 113.0307 262.6836 15.78115984 3281
UTC large
Height (km)
Speed (km/s)
/
Latitude / Longitude
Inclination (degrees)
Orbital Period (minutes)
Azimuth
Elevation
Range (km)
Doppler Factor

Next 0 passes for location: London (51.5072 / 0.1276)

Sorry there are no passes over London.